Location: Aurora Center
(43.5271°N, 98.5894°W)
Time: 08:37:11
(UTC-05:00)

A-11 Canister half - Pass Details

Date: 15 July 2024
Orbit: 1514 x 1685 km, 47.2° (Epoch: 28 April)

Event Time Altitude Azimuth Distance (km) Brightness Sun altitude
Rises 15:12:06 0° 266° (W) 4,892 12.0 60.8°
Reaches altitude 10° 15:15:15 10° 269° (W) 3,920 11.6 60.3°
Maximum altitude 15:25:23 73° 354° (N) 1,746 10.2 58.9°
Drops below altitude 10° 15:35:35 10° 79° (E) 3,940 11.0 57.4°
Sets 15:38:46 0° 82° (E) 4,918 11.3 56.9°
